Time,TemperatureF,DewpointF,PressureIn,WindDirection,WindDirectionDegrees,WindSpeedMPH,WindSpeedGustMPH,Humidity,HourlyPrecipIn,Conditions,Clouds,dailyrainin,SoftwareType,DateUTC
2015-06-03 00:04:00,45.8,42.2,30.02,NNE,29,0.0,0.0,87,0.00,,,0.00,Wunderground v.1.15,2015-06-03 04:04:00,
2015-06-03 00:14:00,45.8,42.4,30.02,NE,38,0.0,0.0,88,0.00,,,0.00,Wunderground v.1.15,2015-06-03 04:14:00,
2015-06-03 00:24:00,45.8,42.4,30.02,NE,39,0.0,0.0,88,0.00,,,0.00,Wunderground v.1.15,2015-06-03 04:24:00,
2015-06-03 00:34:00,45.7,42.1,30.02,East,88,0.0,0.0,87,0.00,,,0.00,Wunderground v.1.15,2015-06-03 04:34:00,
2015-06-03 00:44:00,45.7,42.3,30.02,East,88,0.0,0.0,88,0.00,,,0.00,Wunderground v.1.15,2015-06-03 04:44:00,
2015-06-03 00:54:00,45.7,42.1,30.02,East,88,0.0,0.0,87,0.00,,,0.00,Wunderground v.1.15,2015-06-03 04:54:00,
2015-06-03 01:04:00,45.7,41.8,30.02,SE,128,1.0,2.0,86,0.00,,,0.00,Wunderground v.1.15,2015-06-03 05:04:00,
2015-06-03 01:14:00,46.0,41.7,30.02,SE,124,2.0,2.0,85,0.00,,,0.00,Wunderground v.1.15,2015-06-03 05:14:00,
2015-06-03 01:24:00,46.3,41.7,30.02,South,176,1.0,1.0,84,0.00,,,0.00,Wunderground v.1.15,2015-06-03 05:24:00,
2015-06-03 01:34:00,46.4,41.8,30.02,SSE,160,0.0,0.0,84,0.00,,,0.00,Wunderground v.1.15,2015-06-03 05:34:00,
2015-06-03 01:44:00,46.4,41.8,30.02,SSE,160,1.0,1.0,84,0.00,,,0.00,Wunderground v.1.15,2015-06-03 05:44:00,
2015-06-03 01:54:00,46.3,42.0,30.02,SE,128,0.0,0.0,85,0.00,,,0.00,Wunderground v.1.15,2015-06-03 05:54:00,
2015-06-03 02:04:00,46.3,42.0,30.02,SE,124,1.0,2.0,85,0.00,,,0.00,Wunderground v.1.15,2015-06-03 06:04:00,
2015-06-03 02:14:00,46.4,41.8,30.02,ESE,122,1.0,1.0,84,0.00,,,0.00,Wunderground v.1.15,2015-06-03 06:14:00,
2015-06-03 02:24:00,46.3,42.0,30.02,SE,135,2.0,2.0,85,0.00,,,0.00,Wunderground v.1.15,2015-06-03 06:24:00,
2015-06-03 02:34:00,46.4,42.1,30.02,SE,124,2.0,3.0,85,0.00,,,0.00,Wunderground v.1.15,2015-06-03 06:34:00,
2015-06-03 02:44:00,46.7,42.1,30.02,SE,130,3.0,3.0,84,0.00,,,0.00,Wunderground v.1.15,2015-06-03 06:44:00,
2015-06-03 02:54:00,47.3,42.4,30.02,ESE,120,4.0,4.0,83,0.00,,,0.00,Wunderground v.1.15,2015-06-03 06:54:00,
2015-06-03 03:04:00,47.9,42.7,30.02,SE,125,4.0,4.0,82,0.00,,,0.00,Wunderground v.1.15,2015-06-03 07:04:00,
2015-06-03 03:14:00,48.2,42.6,30.02,ESE,122,4.0,4.0,81,0.00,,,0.00,Wunderground v.1.15,2015-06-03 07:14:00,
2015-06-03 03:24:00,48.5,43.3,30.02,ESE,120,4.0,4.0,82,0.00,,,0.00,Wunderground v.1.15,2015-06-03 07:24:00,
2015-06-03 03:34:00,48.8,43.5,30.02,SE,124,4.0,5.0,82,0.00,,,0.00,Wunderground v.1.15,2015-06-03 07:34:00,
2015-06-03 03:44:00,48.9,44.0,30.02,ESE,116,4.0,4.0,83,0.00,,,0.00,Wunderground v.1.15,2015-06-03 07:44:00,
2015-06-03 03:54:00,49.0,44.4,30.02,ESE,122,4.0,4.0,84,0.00,,,0.00,Wunderground v.1.15,2015-06-03 07:54:00,
2015-06-03 04:04:00,49.3,45.0,30.02,ESE,114,4.0,5.0,85,0.00,,,0.00,Wunderground v.1.15,2015-06-03 08:04:00,